{"data":{"norad_id":47805,"intl_designator":"2021-018U","name":"STARLINK-2386","alt_names":[],"object_type":"PAYLOAD","status":"ACTIVE","operator":null,"country":"US","launch_date":"2021-03-11","launch_site_code":"AFETR","launch_vehicle":null,"mission":null,"orbit_class":"UNKNOWN","rcs_meters":null,"size_class":null,"mass_kg":null,"dimensions":null,"purposes":["comms"],"wikipedia_slug":null,"has_3d_model":false,"image_url":null,"decayed_at":null,"tle_current":{"epoch":"2026-05-24T23:45:00.650304Z","epoch_age_seconds":75950,"freshness":"FRESH","line1":"1 47805U 21018U   26144.98959086  .00051395  00000+0  22591-2 0  9990","line2":"2 47805  53.1050 246.1516 0001957 358.6209   1.4781 15.21421279288429","mean_motion":15.21421279,"eccentricity":0.0001957,"inclination_deg":53.105,"raan_deg":246.1516,"arg_perigee_deg":358.6209,"mean_anomaly_deg":1.4781,"bstar":0.0022591,"rev_number":28842,"period_min":94.648340987217,"perigee_km":500.20634823963,"apogee_km":502.89905878958,"semimajor_km":6879.6897035146,"source":"CELESTRAK","updated_at":"2026-05-25T13:38:16.600733Z"}}}